星链-36714(STARLINK-36714)

导读 | 豆包AI

STARLINK-36714是美国于2026年2月20日发射的星链系列卫星,归属太空探索技术公司的星链互联网星座项目。该卫星旨在为全球范围提供低延迟、高速率的宽带互联网服务,尤其覆盖偏远地区与网络基础设施薄弱区域,进一步扩充星链星座的在轨服务容量,推动全球互联覆盖能力提升。

基本信息
目录编号:
67862
目录名称:
STARLINK-36332
国际标识:
2026-034N
轨道中心:
EARTH
卫星名称:
星链-36714
卫星全名:
星链-36714(STARLINK-36714)
卫星状态:
在轨 (已飞行69 天)
发射日期:
2026-02-20 UTC
国别 :
美国 (US)
星等 :
--
轨道信息
数据来源 国际轨道数据
星历时间: 2026-04-30T21:21:07+0800
6小时前
查看轨道信息
半长轴: 6853.233km
偏心率: 0.000141
轨道倾角: 53.159°
近地点辐角 97.662°
升交点赤经 323.547°
平近点角 262.454°
近地点: 474.129km
远地点: 476.063km
周期: 94.103分钟
每日圈数: 15.302399
详细信息
固有亮度:
5
最大亮度:
2.5
卫星平台:
Starlink V1.0
覆盖范围:
全球
运营商:
太空探索技术公司
运营商所在国:
美国
制造商(研发单位):
太空探索技术公司
制造商所在国:
美国
使用方式:
暂无
卫星简介
Starlink 计划是 SpaceX 推出的全球卫星互联网项目,通过发射低轨道卫星,为全球尤其是偏远地区提供高速、低延迟的互联网服务。自 2019 年起,Starlink 已部署数千颗卫星,旨在缩小全球数字鸿沟,推动互联网普及。该项目还为军事、航空等行业提供通信支持,带来广泛经济效益。
2D轨道图
3D轨道图
轨道高度分析图
轨道倾角分析图
轨道综合分析图
查看轨道综合分析图